Regional Weather Roundup
Issued by NWS Green Bay, WI

Home | Current Version | Previous Version | Graphics & Text | Print | Product List | Glossary Off
Versions: 1 2 3 4 5 6 7 8 9 10 11 12 13 14 15 16 17 18 19 20 21 22 23 24 25 26 27 28 29 30 31 32 33 34 35 36 37 38 39 40 41 42 43 44 45 46 47 48 49 50

000
ASUS43 KGRB 271959
RWRGRB

NORTH-CENTRAL AND NORTHEAST WISCONSIN REGIONAL WEATHER ROUNDUP
NATIONAL WEATHER SERVICE GREEN BAY WI
200 PM CST THU NOV 27 2014

WIZ005-009-010>012-018-019-272100-
NORTH CENTRAL WISCONSIN

CITY           SKY/WX    TMP DP  RH WIND       PRES   REMARKS
IRONWOOD       MOSUNNY    9   1  72 W8        30.31F WCI  -4
MANITOWISH WTR NOT AVBL
ARBOR VITAE    NOT AVBL
EAGLE RIVER    NOT AVBL
LAND O LAKES   NOT AVBL
RHINELANDER    PTSUNNY   10   0  63 NW7       30.29S WCI  -1
PHILLIPS       NOT AVBL
ANTIGO         NOT AVBL
TOMAHAWK       NOT AVBL
MERRILL        NOT AVBL
$$

WIZ013-073-272100-
NORTHEAST WISCONSIN

CITY           SKY/WX    TMP DP  RH WIND       PRES   REMARKS
IRON MOUNTAIN  SUNNY     13  -1  54 NW13      30.29R WCI  -2
MARINETTE      SUNNY     18   1  49 NW12      30.33R WCI   5
$$

WIZ017-030-035>037-045-272100-
CENTRAL WISCONSIN

CITY           SKY/WX    TMP DP  RH WIND       PRES   REMARKS
MEDFORD        NOT AVBL
WAUSAU         SUNNY     14   1  56 NW10      30.32S WCI   1
MOSINEE        SUNNY     12   7  79 W8        30.34S WCI   1
MARSHFIELD     SUNNY     10   0  63 NW9       30.35F WCI  -3
WISC RAPIDS    SUNNY     13   2  61 NW7       30.38S WCI   3
STEVENS POINT  NOT AVBL
WAUPACA        NOT AVBL
SHAWANO        NOT AVBL
CLINTONVILLE   NOT AVBL
$$

WIZ038-039-048-051-272100-
FOX VALLEY

CITY           SKY/WX    TMP DP  RH WIND       PRES   REMARKS
NWS GREEN BAY  SUNNY     19   6  57 NW13      30.35S WCI   6
APPLETON       PTSUNNY   18   7  62 NW9       30.34F WCI   6
OSHKOSH        MOSUNNY   17   8  67 MISG      30.34F
FOND DU LAC    SUNNY     17   7  64 NW9       30.35S WCI   6
$$

WIZ022-050-052-272100-
EAST CENTRAL WISCONSIN

CITY           SKY/WX    TMP DP  RH WIND       PRES   REMARKS
STURGEON BAY   MOSUNNY   18   3  53 NW13      30.32S WCI   4
MANITOWOC      NOT AVBL
SHEBOYGAN      SUNNY     18   6  59 NW10      30.33F WCI   6
$$

LMZ563-521-522-541>543-272100-
LAKESHORE

STATION/POSITION TIME  TEMP    WIND        PRES    VSBY  WAVE
                       AIR SEA DIR/SP/G                  HT/PER
                 (UTC) (F)     (DEG/KT/KT) (MB)    (MI)  (FT/S)
SHEBOYGAN LKSHOR 1900   18 35  330/ 15/ 18 1028.9R
KEWAUNEE LKSHORE 1900   17     310/ 10/ 14 1026.1F
ALGOMA MARINA    1900          340/ 12/ 15   N/A
TWO RIVERS CG    1900   18 36              1027.7      6   2
NORTHPORT PIER   1900   20     330/ 16/ 21 1026.4R
N MID LAKE BUOY  1900   20 42  330/ 19/ 23 1026.3R         4/ 5
SISTER BAY LKSHO 1900          330/ 19/ 23   N/A
CHAMBERS ISLAND  1900   20     300/  8/ 17 1027.1R
MENOMINEE LKSHOR 1900   17     290/  9/ 14 1027.6S
$$



USA.gov is the U.S. government's official web portal to all federal, state and local government web resources and services.